Zurück zum Katalog

STARLINK-34309

AktivKommunikationSSO
NORAD 64167·PAYLOAD·🇺🇸 United States

Gestartet May 27, 2025 von Vandenberg Space Force Base

Loading…

Nächste Überflüge (nächste 24 Stunden)

TLE

AktuellSource: CelesTrak SupGP

Epoche: Sep 15, 2026, 02:39 UTC

1 64167C 25112X   26258.11090278  .00019183  00000+0  59545-3 0  2586
2 64167  97.2832 305.2797 0001027  99.2240 245.1726 15.33431380    15

Verfolge STARLINK-34309 in Echtzeit mit AllMySat

Download on the App Store